Weather History for Winfield, KS

Change the Weather History Date:

Saturday, February 9, 2013

  Actual Average Record
Temperature  
Mean Temperature 43 °F -  
Max Temperature 51 °F 46 °F 69 °F (2000)
Min Temperature 35 °F 26 °F -11 °F (2011)
Degree Days  
Heating Degree Days 22    
Moisture  
Dew Point 37 °F    
Average Humidity 86    
Maximum Humidity 100    
Minimum Humidity 56    
Precipitation  
Precipitation 0.01 in - - ()
Sea Level Pressure  
Sea Level Pressure 29.91 in    
Wind  
Wind Speed 12 mph (SE)    
Max Wind Speed 22 mph    
Max Gust Speed 29 mph    
Visibility 7 miles    
Events Rain    
Averages and records for this station are not official NWS values.
T = Trace of Precipitation, MM = Missing Value Source: NWS Daily Summary

Daily Weather History Graph

Daily Weather History Graph

Search for Another Location

Airport:

Trip Planner

Search our weather history database for the weather conditions in past years. The results will help you decide how hot, cold, wet, or windy it might be!

Date:

Astronomy

Feb. 09, 2013 Rise Set
Actual Time 7:23 AM CST 6:02 PM CST
Civil Twilight 6:56 AM CST 6:28 PM CST
Nautical Twilight 6:25 AM CST 6:59 PM CST
Astronomical Twilight 5:55 AM CST 7:30 PM CST
Moon 6:36 AM CST (2/9) 5:45 PM CST (2/9)
Length of Visible Light 11h 32m
Length of Day
10h 38m
Waning Crescent, 0% of the Moon is Illuminated
Feb 9
Waning Crescent
Feb 10
New
Feb 17
First Quarter
Feb 25
Full
Mar 4
Last Quarter

Hourly Weather History & Observations

Time (CST) Temp. Windchill Dew Point Humidity Pressure Visibility Wind Dir Wind Speed Gust Speed Precip Events Conditions
12:54 AM 35.1 °F 31.0 °F 32.0 °F 89% 30.17 in 7.0 mi ESE 4.6 mph - N/A   Clear
1:54 AM 35.1 °F 32.2 °F 30.9 °F 85% 30.15 in 8.0 mi SE 3.5 mph - N/A   Clear
2:54 AM 36.0 °F 30.3 °F 32.0 °F 86% 30.12 in 9.0 mi SE 6.9 mph - N/A   Clear
3:54 AM 37.9 °F 30.9 °F 32.0 °F 79% 30.10 in 9.0 mi SE 10.4 mph - N/A   Clear
4:54 AM 37.9 °F 30.9 °F 33.1 °F 83% 30.09 in 10.0 mi SSE 10.4 mph - N/A   Clear
5:54 AM 37.9 °F 30.5 °F 33.1 °F 83% 30.09 in 10.0 mi SSE 11.5 mph - N/A   Clear
6:54 AM 37.9 °F 30.9 °F 33.1 °F 83% 30.09 in 10.0 mi SE 10.4 mph - N/A   Clear
7:54 AM 37.9 °F 30.0 °F 33.1 °F 83% 30.09 in 10.0 mi SE 12.7 mph - N/A   Clear
8:54 AM 39.9 °F 32.9 °F 34.0 °F 79% 30.08 in 10.0 mi SE 11.5 mph 23.0 mph N/A   Scattered Clouds
9:54 AM 42.1 °F 34.2 °F 35.1 °F 76% 30.07 in 10.0 mi SE 16.1 mph 24.2 mph N/A   Clear
10:54 AM 46.0 °F 39.9 °F 37.0 °F 71% 30.04 in 10.0 mi SE 13.8 mph - N/A   Mostly Cloudy
11:54 AM 48.0 °F - 37.0 °F 66% 30.01 in 10.0 mi SSE 18.4 mph 27.6 mph N/A   Scattered Clouds
12:54 PM 51.1 °F - 36.0 °F 56% 29.98 in 10.0 mi South 20.7 mph 24.2 mph N/A   Scattered Clouds
1:54 PM 43.0 °F 34.8 °F 37.9 °F 82% 29.92 in 10.0 mi SE 18.4 mph - 0.01 in Rain Light Rain
2:54 PM 42.1 °F 33.6 °F 37.0 °F 82% 29.90 in 9.0 mi SE 18.4 mph 28.8 mph 0.00 in   Overcast
3:41 PM 41.0 °F 31.9 °F 37.4 °F 87% 29.86 in 8.0 mi SE 19.6 mph 27.6 mph N/A   Overcast
3:54 PM 41.0 °F 31.9 °F 37.9 °F 89% 29.87 in 7.0 mi SE 19.6 mph 28.8 mph N/A   Overcast
4:54 PM 41.0 °F 32.2 °F 37.0 °F 86% 29.83 in 6.0 mi SE 18.4 mph 23.0 mph N/A   Overcast
5:11 PM 39.2 °F 29.8 °F 37.4 °F 93% 29.81 in 5.0 mi SE 18.4 mph 25.3 mph N/A   Overcast
5:54 PM 39.9 °F 31.4 °F 37.0 °F 89% 29.80 in 6.0 mi SE 16.1 mph 26.5 mph N/A   Overcast
6:54 PM 39.9 °F 31.1 °F 37.0 °F 89% 29.79 in 7.0 mi SE 17.3 mph 24.2 mph N/A   Overcast
7:54 PM 39.9 °F 32.1 °F 37.9 °F 93% 29.80 in 6.0 mi SE 13.8 mph - N/A   Overcast
8:54 PM 39.9 °F 30.8 °F 39.9 °F 100% 29.75 in 4.0 mi SE 18.4 mph 25.3 mph N/A   Overcast
9:38 PM 41.0 °F 32.5 °F 39.2 °F 93% 29.72 in 3.0 mi SSE 17.3 mph 24.2 mph N/A   Overcast
9:54 PM 41.0 °F 31.4 °F 41.0 °F 100% 29.73 in 3.0 mi SSE 21.9 mph 27.6 mph N/A   Overcast
10:18 PM 42.8 °F 33.8 °F 41.0 °F 93% 29.70 in 2.5 mi SSE 21.9 mph 26.5 mph N/A   Overcast
10:40 PM 42.8 °F 34.8 °F 42.8 °F 100% 29.70 in 3.0 mi SSE 17.3 mph 24.2 mph N/A   Overcast
10:54 PM 42.1 °F 33.1 °F 42.1 °F 100% 29.71 in 3.0 mi SSE 20.7 mph 25.3 mph N/A   Overcast
11:01 PM 42.8 °F 35.1 °F 42.8 °F 100% 29.74 in 2.5 mi South 16.1 mph 25.3 mph N/A   Overcast
11:54 PM 44.1 °F 36.2 °F 43.0 °F 96% 29.71 in 2.5 mi SSE 18.4 mph 25.3 mph N/A   Overcast